Add date Part number Description Manufacture PDF
10-20-2017 P4KE9.1A DC COMPONENTS CO., LTD. R RECTIFIER Dc Components P4KE9.1A datasheet
10-20-2017 P4KE6.8 DC COMPONENTS CO., LTD. R RECTIFIER Dc Components P4KE6.8 datasheet
10-20-2017 P4KE10 DC COMPONENTS CO., LTD. R RECTIFIER Dc Components P4KE10 datasheet
10-20-2017 P4KE10A DC COMPONENTS CO., LTD. R RECTIFIER Dc Components P4KE10A datasheet
10-20-2017 KF15B www..com KFxxB Very low STMicroelectronics KF15B datasheet
10-20-2017 KFX1459T KEC KFX1459T datasheet
10-20-2017 KF25B www..com KFxxB Very low STMicroelectronics KF25B datasheet
10-20-2017 KFX5914T KEC KFX5914T datasheet
10-20-2017 KFX3186T KEC KFX3186T datasheet
10-20-2017 KF33B www..com KFxxB Very low STMicroelectronics KF33B datasheet
10-20-2017 KFX8631T KEC KFX8631T datasheet
10-20-2017 SGM7SZ126 SGM7SZ126 Small Logic Buffer with T SG Micro SGM7SZ126 datasheet
10-20-2017 SGM7SZ125 SGM7SZ125 Small Logic Buffer with T SG Micro SGM7SZ125 datasheet
10-20-2017 SGM7SZ86 SGM7SZ86 Small Logic Two-Input Excl SG Micro SGM7SZ86 datasheet
10-20-2017 SGM7SZ19 SGM7SZ19 Small Logic 1-of-2 Decoder SG Micro SGM7SZ19 datasheet
10-20-2017 SGM7SZ32 SGM7SZ32 Small Logic Two-Input OR G SG Micro SGM7SZ32 datasheet
10-20-2017 SGM7SZ14 SGM7SZ14 Small Logic Inverter with SG Micro SGM7SZ14 datasheet
10-20-2017 SGM7SZ08 SGM7SZ08 Small Logic Two-Input AND SG Micro SGM7SZ08 datasheet
10-20-2017 SGM7SZ00 SGM7SZ00 Small Logic Two-Input NAND SG Micro SGM7SZ00 datasheet
10-20-2017 SGM7SZ04 SGM7SZ04 Small Logic Inverter GENE SG Micro SGM7SZ04 datasheet
10-20-2017 SGM4550 SGM4548/49/50 High Speed, Dual Leve SG Micro SGM4550 datasheet
10-20-2017 SGM4549 SGM4548/49/50 High Speed, Dual Leve SG Micro SGM4549 datasheet
10-20-2017 SGM3736 SGM3736 PWM Dimming, 38V Step-Up LE SG Micro SGM3736 datasheet
10-20-2017 SGM4548 SGM4548/49/50 High Speed, Dual Leve SG Micro SGM4548 datasheet
10-20-2017 SGM3735 SGM3735 38V Step-Up LED Driver GEN SG Micro SGM3735 datasheet
10-20-2017 SGM3727 SGM3727 High Efficiency, 38V Step-U SG Micro SGM3727 datasheet
10-20-2017 SGM3732 SGM3732 PWM Dimming, 38V Step-Up LE SG Micro SGM3732 datasheet
10-20-2017 SGM3725 SGM3725 38V Step-Up LED Driver GEN SG Micro SGM3725 datasheet
10-20-2017 SGM3720 SGM3720 PWM Dimming, 38V Step-Up LE SG Micro SGM3720 datasheet
10-20-2017 SGM2554 Preliminary Datasheet SGM2554 Powe SG Micro SGM2554 datasheet
10-20-2017 SGM4056 SGM4056 High Input Voltage Charger SG Micro SGM4056 datasheet
10-20-2017 SGM6232 SGM6232 2A, 38V, 1.4MHz Step-Down C SG Micro SGM6232 datasheet
10-20-2017 SGM6230 SGM6230 2A, 38V, 385kHz Step-Down C SG Micro SGM6230 datasheet
10-20-2017 SGM6130 SGM6130 3A, 28.5V, 385kHz Step-Down SG Micro SGM6130 datasheet
10-20-2017 SGM6132 SGM6132 3A, 28.5V, 1.4MHz Step-Down SG Micro SGM6132 datasheet
10-20-2017 SGM809 SGM803/SGM809/SGM810 Microprocessor SG Micro SGM809 datasheet
10-20-2017 SGM6514 SGM6514 16-Input, 8-Output Crosspoi SG Micro SGM6514 datasheet
10-20-2017 SGM6502 SGM6502 8-Input, 6-Output Video Swi SG Micro SGM6502 datasheet
10-20-2017 SGM48754 SGM48754 Quad SPST CMOS Analog Swit SG Micro SGM48754 datasheet
10-20-2017 SGM6501 SGM6501 12-Input, 9-Output Video Sw SG Micro SGM6501 datasheet
10-20-2017 SGM48753 SGM48753 CMOS Analog Switch GENERA SG Micro SGM48753 datasheet
10-20-2017 SGM48752 SGM48752 CMOS Analog Multiplexer G SG Micro SGM48752 datasheet
10-20-2017 SGM4583 SGM4583 High Voltage, CMOS Analog S SG Micro SGM4583 datasheet
10-20-2017 SGM48751 SGM48751 8:1 CMOS Analog Signal Mul SG Micro SGM48751 datasheet
10-20-2017 SGM4582 SGM4582 High Voltage, CMOS Analog M SG Micro SGM4582 datasheet
10-20-2017 SGM4581 SGM4581 High Voltage, CMOS Analog M SG Micro SGM4581 datasheet
10-20-2017 SGM4996 SGM4996 1.3W Fully Differential Aud SG Micro SGM4996 datasheet
10-20-2017 SGM4995 SGM4995 1.3W Mono Fully Differentia SG Micro SGM4995 datasheet
10-20-2017 SGM4891 SGM4891 1.2W Audio Power Amplifier SG Micro SGM4891 datasheet
10-20-2017 SGM4895 SGM4895 1.3W Fully Differential Aud SG Micro SGM4895 datasheet
10-20-2017 SGM4888 SGM4888 Dual 2.1W Audio Power Ampli SG Micro SGM4888 datasheet
10-20-2017 SGM4871 SGM4871 2.4W Audio Power Amplifier SG Micro SGM4871 datasheet
10-20-2017 SGM4865 SGM4865 2.6W Stereo Audio Power Amp SG Micro SGM4865 datasheet
10-20-2017 SGM4863 SGM4863 Dual 2.1W Audio Power Ampli SG Micro SGM4863 datasheet
10-20-2017 SGM89111 SGM89111 Capless 3Vrms Line Driver SG Micro SGM89111 datasheet
10-20-2017 SGM89112 SGM89112 Capless 3Vrms Line Driver SG Micro SGM89112 datasheet
10-20-2017 SGM89000 SGM89000 Capless 2Vrms Line Driver SG Micro SGM89000 datasheet
10-20-2017 SGM8902 SGM8902 Capless 2Vrms to 3Vrms Line SG Micro SGM8902 datasheet
10-20-2017 SGM4916 SGM4916 88mW, Capless, Stereo Headp SG Micro SGM4916 datasheet
10-20-2017 SGM4918 SGM4918 80mW, Capless, Stereo Headp SG Micro SGM4918 datasheet
10-20-2017 SGM4915 SGM4915 Dual 145mW Headphone Amplif SG Micro SGM4915 datasheet
10-20-2017 SGM4914 SGM4914 95mW, Capless, Stereo Headp SG Micro SGM4914 datasheet
10-20-2017 SGM4810 SGM4810 Dual 158mW Headphone Amplif SG Micro SGM4810 datasheet
10-20-2017 SGM4812 SGM4812 132mW Differential Input, S SG Micro SGM4812 datasheet
10-20-2017 SGM4809 SGM4809 Dual 158mW Headphone Amplif SG Micro SGM4809 datasheet
10-20-2017 SGM9203 SGM9203 Triple, 6th-Order, Video Fi SG Micro SGM9203 datasheet
10-20-2017 SGM9346 SGM9346 6-Channel, 6th-Order Video SG Micro SGM9346 datasheet
10-20-2017 SGM9155 SGM9155 Single Channel, Video Filte SG Micro SGM9155 datasheet
10-20-2017 SGM9153 SGM9153 High Speed, Low Voltage, Ca SG Micro SGM9153 datasheet
10-20-2017 SGM9154 SGM9154 Single Channel, Video Filte SG Micro SGM9154 datasheet
10-20-2017 SGM9152 SGM9152 Single Channel, Video Filte SG Micro SGM9152 datasheet
10-20-2017 SGM9150 SGM9150 4-Channel, Video Filter Dri SG Micro SGM9150 datasheet
10-20-2017 SGM9148 SGM9148 13MHz, 5th-Order Video Driv SG Micro SGM9148 datasheet
10-20-2017 SGM9149 SGM9149 13MHz, Triple-Channel, 5th- SG Micro SGM9149 datasheet
10-20-2017 SGM9147 SGM9147 13MHz Rail-to-Rail Composit SG Micro SGM9147 datasheet
10-20-2017 SGM9146 SGM9146 4-Channel, Video Filter Dri SG Micro SGM9146 datasheet
10-20-2017 SGM9144 SGM9144 Capless Output Coupling Low SG Micro SGM9144 datasheet
10-20-2017 SGM9140 SGM9140 26MHz, Video Driver with Y- SG Micro SGM9140 datasheet
10-20-2017 SGM9141 SGM9141 3-Input Video Switch PRODU SG Micro SGM9141 datasheet
10-20-2017 SGM9137 SGM9137 4-Channel, Video Filter Dri SG Micro SGM9137 datasheet
10-20-2017 SGM9135 SGM9135 4-Channel, 6th-Order Video SG Micro SGM9135 datasheet
10-20-2017 SGM9136 SGM9136 4-Channel, Video Filter Dri SG Micro SGM9136 datasheet
10-20-2017 SGM9134 SGM9134 4-Channel, Video Filter Dri SG Micro SGM9134 datasheet
10-20-2017 SGM9132 SGM9132 3-Channel, Video Filter Dri SG Micro SGM9132 datasheet
10-20-2017 SGM9133 SGM9133 4-Channel, Video Filter Dri SG Micro SGM9133 datasheet
10-20-2017 P4KE11 DC COMPONENTS CO., LTD. R RECTIFIER Dc Components P4KE11 datasheet
10-20-2017 P4KE11A DC COMPONENTS CO., LTD. R RECTIFIER Dc Components P4KE11A datasheet
10-20-2017 P4KE12 DC COMPONENTS CO., LTD. R RECTIFIER Dc Components P4KE12 datasheet
10-20-2017 P4KE12A DC COMPONENTS CO., LTD. R RECTIFIER Dc Components P4KE12A datasheet
10-20-2017 P4KE13 DC COMPONENTS CO., LTD. R RECTIFIER Dc Components P4KE13 datasheet
10-20-2017 P4KE13A DC COMPONENTS CO., LTD. R RECTIFIER Dc Components P4KE13A datasheet
10-20-2017 P4KE15 DC COMPONENTS CO., LTD. R RECTIFIER Dc Components P4KE15 datasheet
10-20-2017 P4KE15A DC COMPONENTS CO., LTD. R RECTIFIER Dc Components P4KE15A datasheet
10-20-2017 P4KE16 DC COMPONENTS CO., LTD. R RECTIFIER Dc Components P4KE16 datasheet
10-20-2017 P4KE16A DC COMPONENTS CO., LTD. R RECTIFIER Dc Components P4KE16A datasheet
10-20-2017 P4KE18 DC COMPONENTS CO., LTD. R RECTIFIER Dc Components P4KE18 datasheet
10-20-2017 P4KE18A DC COMPONENTS CO., LTD. R RECTIFIER Dc Components P4KE18A datasheet
10-20-2017 P4KE20 DC COMPONENTS CO., LTD. R RECTIFIER Dc Components P4KE20 datasheet
10-20-2017 P4KE20A DC COMPONENTS CO., LTD. R RECTIFIER Dc Components P4KE20A datasheet
10-20-2017 P4KE22 DC COMPONENTS CO., LTD. R RECTIFIER Dc Components P4KE22 datasheet
10-20-2017 P4KE22A DC COMPONENTS CO., LTD. R RECTIFIER Dc Components P4KE22A datasheet
10-20-2017 P4KE24 DC COMPONENTS CO., LTD. R RECTIFIER Dc Components P4KE24 datasheet
10-20-2017 P4KE24A DC COMPONENTS CO., LTD. R RECTIFIER Dc Components P4KE24A datasheet
10-20-2017 P4KE27 DC COMPONENTS CO., LTD. R RECTIFIER Dc Components P4KE27 datasheet
10-20-2017 P4KE27A DC COMPONENTS CO., LTD. R RECTIFIER Dc Components P4KE27A datasheet
10-20-2017 P4KE30 DC COMPONENTS CO., LTD. R RECTIFIER Dc Components P4KE30 datasheet
10-20-2017 P4KE30A DC COMPONENTS CO., LTD. R RECTIFIER Dc Components P4KE30A datasheet
10-20-2017 P4KE33 DC COMPONENTS CO., LTD. R RECTIFIER Dc Components P4KE33 datasheet
10-20-2017 P4KE33A DC COMPONENTS CO., LTD. R RECTIFIER Dc Components P4KE33A datasheet
10-20-2017 P4KE36 DC COMPONENTS CO., LTD. R RECTIFIER Dc Components P4KE36 datasheet
10-20-2017 P4KE36A DC COMPONENTS CO., LTD. R RECTIFIER Dc Components P4KE36A datasheet
10-20-2017 P4KE39 DC COMPONENTS CO., LTD. R RECTIFIER Dc Components P4KE39 datasheet
10-20-2017 P4KE39A DC COMPONENTS CO., LTD. R RECTIFIER Dc Components P4KE39A datasheet
10-20-2017 P4KE43 DC COMPONENTS CO., LTD. R RECTIFIER Dc Components P4KE43 datasheet
10-20-2017 P4KE43A DC COMPONENTS CO., LTD. R RECTIFIER Dc Components P4KE43A datasheet
10-20-2017 P4KE47 DC COMPONENTS CO., LTD. R RECTIFIER Dc Components P4KE47 datasheet
10-20-2017 P4KE47A DC COMPONENTS CO., LTD. R RECTIFIER Dc Components P4KE47A datasheet
10-20-2017 P4KE51 DC COMPONENTS CO., LTD. R RECTIFIER Dc Components P4KE51 datasheet
10-20-2017 P4KE51A DC COMPONENTS CO., LTD. R RECTIFIER Dc Components P4KE51A datasheet
10-20-2017 P4KE56 DC COMPONENTS CO., LTD. R RECTIFIER Dc Components P4KE56 datasheet
10-20-2017 P4KE56A DC COMPONENTS CO., LTD. R RECTIFIER Dc Components P4KE56A datasheet
10-20-2017 P4KE62 DC COMPONENTS CO., LTD. R RECTIFIER Dc Components P4KE62 datasheet
10-20-2017 P4KE62A DC COMPONENTS CO., LTD. R RECTIFIER Dc Components P4KE62A datasheet
10-20-2017 P4KE68 DC COMPONENTS CO., LTD. R RECTIFIER Dc Components P4KE68 datasheet
10-20-2017 P4KE68A DC COMPONENTS CO., LTD. R RECTIFIER Dc Components P4KE68A datasheet
10-20-2017 P4KE75 DC COMPONENTS CO., LTD. R RECTIFIER Dc Components P4KE75 datasheet
10-20-2017 P4KE75A DC COMPONENTS CO., LTD. R RECTIFIER Dc Components P4KE75A datasheet
10-20-2017 P4KE82 DC COMPONENTS CO., LTD. R RECTIFIER Dc Components P4KE82 datasheet
10-20-2017 P4KE82A DC COMPONENTS CO., LTD. R RECTIFIER Dc Components P4KE82A datasheet
10-20-2017 P4KE91 DC COMPONENTS CO., LTD. R RECTIFIER Dc Components P4KE91 datasheet
10-20-2017 P4KE91A DC COMPONENTS CO., LTD. R RECTIFIER Dc Components P4KE91A datasheet
10-20-2017 P4KE100 DC COMPONENTS CO., LTD. R RECTIFIER Dc Components P4KE100 datasheet
10-20-2017 P4KE100A DC COMPONENTS CO., LTD. R RECTIFIER Dc Components P4KE100A datasheet
10-20-2017 P4KE110 DC COMPONENTS CO., LTD. R RECTIFIER Dc Components P4KE110 datasheet
10-20-2017 P4KE110A DC COMPONENTS CO., LTD. R RECTIFIER Dc Components P4KE110A datasheet
10-20-2017 P4KE120 DC COMPONENTS CO., LTD. R RECTIFIER Dc Components P4KE120 datasheet
10-20-2017 P4KE120A DC COMPONENTS CO., LTD. R RECTIFIER Dc Components P4KE120A datasheet
10-20-2017 P4KE130 DC COMPONENTS CO., LTD. R RECTIFIER Dc Components P4KE130 datasheet
10-20-2017 P4KE130A DC COMPONENTS CO., LTD. R RECTIFIER Dc Components P4KE130A datasheet
10-20-2017 P4KE150 DC COMPONENTS CO., LTD. R RECTIFIER Dc Components P4KE150 datasheet
10-20-2017 P4KE150A DC COMPONENTS CO., LTD. R RECTIFIER Dc Components P4KE150A datasheet
10-20-2017 P4KE160 DC COMPONENTS CO., LTD. R RECTIFIER Dc Components P4KE160 datasheet
10-20-2017 P4KE160A DC COMPONENTS CO., LTD. R RECTIFIER Dc Components P4KE160A datasheet
10-20-2017 P4KE170 DC COMPONENTS CO., LTD. R RECTIFIER Dc Components P4KE170 datasheet
10-20-2017 P4KE170A DC COMPONENTS CO., LTD. R RECTIFIER Dc Components P4KE170A datasheet
10-20-2017 P4KE180 DC COMPONENTS CO., LTD. R RECTIFIER Dc Components P4KE180 datasheet
10-20-2017 P4KE180A DC COMPONENTS CO., LTD. R RECTIFIER Dc Components P4KE180A datasheet
10-20-2017 P4KE200 DC COMPONENTS CO., LTD. R RECTIFIER Dc Components P4KE200 datasheet
10-20-2017 P4KE200A DC COMPONENTS CO., LTD. R RECTIFIER Dc Components P4KE200A datasheet
10-20-2017 P4KE220 DC COMPONENTS CO., LTD. R RECTIFIER Dc Components P4KE220 datasheet
10-20-2017 P4KE220A DC COMPONENTS CO., LTD. R RECTIFIER Dc Components P4KE220A datasheet
10-20-2017 P4KE250 DC COMPONENTS CO., LTD. R RECTIFIER Dc Components P4KE250 datasheet
10-20-2017 P4KE250A DC COMPONENTS CO., LTD. R RECTIFIER Dc Components P4KE250A datasheet
10-20-2017 P4KE300 DC COMPONENTS CO., LTD. R RECTIFIER Dc Components P4KE300 datasheet
10-20-2017 P4KE300A DC COMPONENTS CO., LTD. R RECTIFIER Dc Components P4KE300A datasheet
10-20-2017 P4KE350 DC COMPONENTS CO., LTD. R RECTIFIER Dc Components P4KE350 datasheet
10-20-2017 P4KE350A DC COMPONENTS CO., LTD. R RECTIFIER Dc Components P4KE350A datasheet
10-20-2017 P4KE400 DC COMPONENTS CO., LTD. R RECTIFIER Dc Components P4KE400 datasheet
10-20-2017 P4KE400A DC COMPONENTS CO., LTD. R RECTIFIER Dc Components P4KE400A datasheet
10-20-2017 P4KE440 DC COMPONENTS CO., LTD. R RECTIFIER Dc Components P4KE440 datasheet
10-20-2017 P4KE440A DC COMPONENTS CO., LTD. R RECTIFIER Dc Components P4KE440A datasheet
10-20-2017 SGM8042 Preliminary Datasheet SGM8042 670n SG Micro SGM8042 datasheet
10-20-2017 SGM8044 GENERAL DESCRIPTION The SGM8044 is SG Micro SGM8044 datasheet
10-20-2017 SGM8045 SGM8045 710nA, Non-Unity Gain, Sing SG Micro SGM8045 datasheet
10-20-2017 SGM8046 SGM8046 670nA, Non-Unity Gain, Dual SG Micro SGM8046 datasheet
10-20-2017 SGM8048 SGM8048 690nA, Non-Unity Gain, Quad SG Micro SGM8048 datasheet
10-20-2017 SGM8141   PRODUCT DESCRIPTION The SGM8141 SG Micro SGM8141 datasheet
10-20-2017 SGM8142   PRODUCT DESCRIPTION The SGM8142 SG Micro SGM8142 datasheet
10-20-2017 SGM8291 SGM8291/2/4 High Voltage Rail-to-Ra SG Micro SGM8291 datasheet
10-20-2017 SGM8292 SGM8291/2/4 High Voltage Rail-to-Ra SG Micro SGM8292 datasheet
10-20-2017 SGM8294 SGM8291/2/4 High Voltage Rail-to-Ra SG Micro SGM8294 datasheet
10-20-2017 SGM8555 SGM8555/6 Single-Supply, Single Rai SG Micro SGM8555 datasheet
10-20-2017 SGM8556 SGM8555/6 Single-Supply, Single Rai SG Micro SGM8556 datasheet
10-20-2017 SGM8049-1 SGM8049-1/SGM8049-2/SGM8049-4 1.8V, SG Micro SGM8049-1 datasheet
10-20-2017 SGM8049-2 SGM8049-1/SGM8049-2/SGM8049-4 1.8V, SG Micro SGM8049-2 datasheet
10-20-2017 SGM8049-4 SGM8049-1/SGM8049-2/SGM8049-4 1.8V, SG Micro SGM8049-4 datasheet
10-20-2017 SGM8271 SGM8271/2/4 High Voltage Rail-to-Ra SG Micro SGM8271 datasheet
10-20-2017 SGM8272 SGM8271/2/4 High Voltage Rail-to-Ra SG Micro SGM8272 datasheet
10-20-2017 SGM8274 SGM8271/2/4 High Voltage Rail-to-Ra SG Micro SGM8274 datasheet
10-20-2017 SGM8535 SGM8535/6/7/8 1.5MHz, Rail-to-Rail SG Micro SGM8535 datasheet
10-20-2017 SGM8536 SGM8535/6/7/8 1.5MHz, Rail-to-Rail SG Micro SGM8536 datasheet
10-20-2017 SGM8537 SGM8535/6/7/8 1.5MHz, Rail-to-Rail SG Micro SGM8537 datasheet
10-20-2017 SGM8538 SGM8535/6/7/8 1.5MHz, Rail-to-Rail SG Micro SGM8538 datasheet
10-20-2017 SGM8301 SGM8301/2/4 100MHz, High Voltage, R SG Micro SGM8301 datasheet
10-20-2017 SGM8302 SGM8301/2/4 100MHz, High Voltage, R SG Micro SGM8302 datasheet
10-20-2017 SGM8304 SGM8301/2/4 100MHz, High Voltage, R SG Micro SGM8304 datasheet
10-20-2017 SGM8955 SGM8955/6 1.8V, Micro-Power CMOS Ze SG Micro SGM8955 datasheet
10-20-2017 SGM8956 SGM8955/6 1.8V, Micro-Power CMOS Ze SG Micro SGM8956 datasheet
10-20-2017 SGM8957-1 SGM8957-1/SGM8957-2 1.8V, Micro-Pow SG Micro SGM8957-1 datasheet
10-20-2017 SGM8957-2 SGM8957-1/SGM8957-2 1.8V, Micro-Pow SG Micro SGM8957-2 datasheet
10-20-2017 SGM8422 SGM8422/4 2.4MHz, High Voltage, Rai SG Micro SGM8422 datasheet
10-20-2017 SGM8424 SGM8422/4 2.4MHz, High Voltage, Rai SG Micro SGM8424 datasheet
10-20-2017 SGM8425 SGM8425/6/8 18MHz, High Voltage, Ra SG Micro SGM8425 datasheet
10-20-2017 SGM8426 SGM8425/6/8 18MHz, High Voltage, Ra SG Micro SGM8426 datasheet
10-20-2017 SGM8428 SGM8425/6/8 18MHz, High Voltage, Ra SG Micro SGM8428 datasheet
10-20-2017 SGM8701 SGM8701 Micro-Power, CMOS Input, RR SG Micro SGM8701 datasheet
10-20-2017 SGM8706 SGM8706 Micro-Power, RRIO, 1.8V, Pu SG Micro SGM8706 datasheet
10-20-2017 SGM8707 SGM8707 Micro-Power, CMOS Input, RR SG Micro SGM8707 datasheet
10-20-2017 SGM8709 SGM8709 Micro-Power, CMOS Input, RR SG Micro SGM8709 datasheet
10-20-2017 SGM8710 SGM8710 Micro-Power, RRIO, 1.8V, Op SG Micro SGM8710 datasheet
10-20-2017 SGM8711 SGM8711 Micro-Power, RRIO, 1.8V Sma SG Micro SGM8711 datasheet
10-20-2017 SGM8740 SGM8740 45ns, Low-Power, 3V/5V, Rai SG Micro SGM8740 datasheet
10-20-2017 SGM8741 SGM8741 45ns, Low-Power, 3V/5V, Rai SG Micro SGM8741 datasheet
10-20-2017 SGM8742 SGM8742 45ns, Low-Power, 3V/5V, Rai SG Micro SGM8742 datasheet
10-20-2017 SGM8743 SGM8743 6ns, Low-Power, 3V/5V, Rail SG Micro SGM8743 datasheet
10-20-2017 SGM8744 SGM8744 6ns, Low-Power, 3V/5V, Rail SG Micro SGM8744 datasheet
10-20-2017 SGM8745 SGM8745 6ns, Low-Power, 3V/5V, Rail SG Micro SGM8745 datasheet
10-20-2017 SGM8746 SGM8746 155ns, Low-Power, 3V/5V, Ra SG Micro SGM8746 datasheet
10-20-2017 SGM8747 SGM8747 155ns, Low-Power, 3V/5V, Ra SG Micro SGM8747 datasheet
10-20-2017 SGM8748 SGM8748 155ns, Low-Power, 3V/5V, Ra SG Micro SGM8748 datasheet
10-20-2017 SGM8749 SGM8749 150ns, Low-Power, 3V/5V, Ra SG Micro SGM8749 datasheet
10-20-2017 SGM8750 SGM8750 150ns, Low-Power, Dual Chan SG Micro SGM8750 datasheet
10-20-2017 SGM8751 SGM8751 64ns, Low-Power, Rail-to-Ra SG Micro SGM8751 datasheet
10-20-2017 SGM9113 SGM9113 8MHz, 5th-Order Video Drive SG Micro SGM9113 datasheet
10-20-2017 SGM9124 SGM9124 4-Channel, 5th-Order, Stand SG Micro SGM9124 datasheet
10-20-2017 SGM9127 SGM9127 4-Channel, 5th-Order, Stand SG Micro SGM9127 datasheet
10-20-2017 SGM9128YP SGM9128YP 4-Channel, 6th-Order Vide SG Micro SGM9128YP datasheet
10-20-2017 SGM9131 SGM9131 3-Channel, Video Filter Dri SG Micro SGM9131 datasheet
10-20-2017 KFX0327T KEC KFX0327T datasheet
10-20-2017 KFX1404T KEC KFX1404T datasheet
10-20-2017 KFX0414T KEC KFX0414T datasheet
10-20-2017 P4KE9.1 DC COMPONENTS CO., LTD. R RECTIFIER Dc Components P4KE9.1 datasheet
10-20-2017 SGM8041 SGM8041 710nA, Single Rail-to-Rail SG Micro SGM8041 datasheet
10-20-2017 SGM3799 SGM3799 0.5Ω, Low Voltage Dual, DP SG Micro SGM3799 datasheet
10-20-2017 P4KE8.2A DC COMPONENTS CO., LTD. R RECTIFIER Dc Components P4KE8.2A datasheet
10-20-2017 P4KE8.2 DC COMPONENTS CO., LTD. R RECTIFIER Dc Components P4KE8.2 datasheet
10-20-2017 KFX2703T KEC KFX2703T datasheet
10-20-2017 SGM4157YC SGM4157YC SPDT 0.8Ω Analog Switch SG Micro SGM4157YC datasheet
10-20-2017 P4KE7.5 DC COMPONENTS CO., LTD. R RECTIFIER Dc Components P4KE7.5 datasheet
10-20-2017 P4KE6.8A DC COMPONENTS CO., LTD. R RECTIFIER Dc Components P4KE6.8A datasheet
10-20-2017 P4KE7.5A DC COMPONENTS CO., LTD. R RECTIFIER Dc Components P4KE7.5A datasheet

12-2018    11-2018    10-2018    9-2018    8-2018    7-2018    6-2018    5-2018    4-2018    3-2018    2-2018    1-2018
12-2017    11-2017    10-2017    9-2017    8-2017    7-2017    6-2017    5-2017    4-2017    3-2017    2-2017    1-2017
12-2016    11-2016    10-2016    9-2016    8-2016    7-2016    6-2016    5-2016    4-2016    3-2016    2-2016    1-2016
12-2015    11-2015    10-2015    9-2015    8-2015    7-2015    6-2015    5-2015    4-2015    3-2015    2-2015    1-2015
12-2014    11-2014    10-2014    9-2014    8-2014    7-2014    6-2014    5-2014    4-2014    3-2014    2-2014    1-2014
12-2013    11-2013    10-2013    9-2013    8-2013    7-2013    6-2013    5-2013    4-2013    3-2013    2-2013    1-2013
12-2012    11-2012    10-2012    9-2012    8-2012    7-2012    6-2012    5-2012    4-2012    3-2012    2-2012    1-2012
12-2011    11-2011    10-2011    9-2011    8-2011    7-2011    6-2011    5-2011    4-2011    3-2011    2-2011    1-2011
12-2010    11-2010    10-2010    9-2010    8-2010    7-2010    6-2010    5-2010    4-2010    3-2010    2-2010    1-2010


31  30  29  28  27  26  25  24  23  22  21  20  19  18  17  16  15  14  13  12  11  10  09  08  07  06  05  04  03  02  01


The site has been moved : DatasheetsPDF.com
Since 2005 - HOME - Link US - All - Privacy Policy & Contact Us -